Location: *
(51.1248°S, 108.4023°W)
Time: 05:32:23
(UTC+00:00)

Helios 1A Rocket - Pass Details

Date: 15 June 2021
Orbit: 563 x 584 km, 98.3° (Epoch: 31 July)

Event Time Altitude Azimuth Distance (km) Brightness Sun altitude
Rises 14:15:49 0° 28° (NNE) 2,790 7.4 -8.9°
Reaches altitude 10° 14:17:58 10° 32° (NNE) 1,903 6.6 -8.6°
Maximum altitude 14:22:00 56° 110° (ESE) 711 3.7 -8.1°
Drops below altitude 10° 14:26:08 10° 187° (S) 1,941 5.3 -7.5°
Sets 14:28:20 0° 191° (S) 2,853 6.1 -7.2°
